Home   Weather   Fürth   Past weeks

Flag for Germany Past Weather in Fürth, Bavaria, Germany — Yesterday and Last 2 Weeks

48 °F


Feels Like: 45 °F
Forecast: 46 / 60 °F
Wind: 7 mph from East

Location: Nuernberg

Current Time: Oct 23, 2016 at 6:23:54 PM

Latest Report: Oct 23, 2016 at 5:50 PM

Visibility: 10 mi

Pressure: 29.89 "Hg

Humidity: 87%

Dew Point: 45 °F

Location of FürthLocation

Past Weather in Fürth — Graph


Fürth Temperature Yesterday

Maximum temperature yesterday: 46 °F (at 3:20 PM)
Minimum temperature yesterday: 39 °F (at 4:50 AM)
Average temperature yesterday: 42 °F

High & Low Weather Summary for the Past Weeks

High66 °F (Oct 16, 2:20 PM)100% (Oct 8, 10:20 PM)30.24 "Hg (Oct 8, 10:20 PM)
Low30 °F (Oct 10, 4:20 AM)47% (Oct 10, 5:50 PM)29.71 "Hg (Oct 14, 6:20 PM)
Average45 °F90%30.05 "Hg
* Reported Oct 8 5:20 PM — Oct 23 5:20 PM, Fürth, Weather by CustomWeather, © 2016

Note: Actual official high and low records may vary slightly from our data, if they occured in-between our weather recording intervals... More about our weather records


Fürth Weather History for the Previous 24 Hours

Scroll right to see more
Time TempWeatherWind HumidityBarometerVisibility
5:20 PM
Sun, Oct 23
50 °FSunny.7 mph82%29.89 "Hg10 mi
4:50 PM52 °FPassing clouds.5 mph72%29.89 "HgN/A
4:20 PM52 °FSunny.7 mph72%29.89 "Hg10 mi
3:50 PM54 °FPassing clouds.9 mph67%29.89 "HgN/A
3:20 PM52 °FPassing clouds.7 mph67%29.89 "HgN/A
2:50 PM52 °FPassing clouds.10 mph67%29.89 "HgN/A
2:20 PM50 °FBroken clouds.10 mph71%29.89 "HgN/A
1:50 PM50 °FPartly sunny.10 mph71%29.89 "HgN/A
1:20 PM52 °FPartly sunny.9 mph77%29.92 "HgN/A
12:50 PM50 °FPartly sunny.8 mph82%29.92 "HgN/A
12:20 PM48 °FPartly sunny.8 mph87%29.92 "HgN/A
11:50 AM48 °FPassing clouds.8 mph87%29.95 "HgN/A
11:20 AM45 °FPassing clouds.7 mph93%29.95 "HgN/A
10:50 AM43 °FPassing clouds.6 mph100%29.95 "HgN/A
10:20 AM41 °FPassing clouds.5 mph100%29.95 "HgN/A
9:50 AM41 °FPassing clouds.5 mph100%29.95 "HgN/A
9:20 AM39 °FClear.5 mph100%29.95 "Hg4 mi
8:50 AM39 °FClear.5 mph100%29.95 "Hg4 mi
8:20 AM37 °FFog.5 mph100%29.95 "Hg4 mi
7:50 AM37 °FFog.5 mph100%29.95 "Hg4 mi
7:20 AM37 °FFog.2 mph100%29.95 "Hg4 mi
6:50 AM37 °FFog.3 mph100%29.95 "Hg4 mi
6:20 AM37 °FFog.3 mph100%29.95 "Hg4 mi
5:50 AM37 °FFog.1 mph100%29.95 "Hg4 mi
5:20 AM37 °FFog.5 mph100%29.95 "Hg4 mi
4:50 AM37 °FClear.2 mph100%29.95 "Hg4 mi
4:20 AM37 °FClear.1 mph100%29.95 "Hg4 mi
3:50 AM37 °FClear.2 mph100%29.95 "Hg5 mi
3:20 AM37 °FClear.2 mph100%29.95 "Hg5 mi
2:50 AM37 °FClear.3 mph100%29.98 "Hg4 mi
2:20 AM37 °FFog.5 mph100%29.98 "Hg4 mi
1:50 AM37 °FFog.3 mph100%29.98 "Hg3 mi
1:20 AM37 °FFog.3 mph100%29.98 "Hg3 mi
12:50 AM36 °FFog.2 mph100%29.98 "Hg3 mi
12:20 AM37 °FFog.5 mph100%29.98 "Hg5 mi
11:50 PM
Sat, Oct 22
39 °FFog.5 mph100%29.98 "Hg5 mi
11:20 PM39 °FFog.2 mph100%29.98 "Hg5 mi
10:50 PM41 °FFog.2 mph100%29.98 "Hg6 mi
10:20 PM41 °FFog.2 mph100%29.98 "Hg6 mi
9:50 PM41 °FFog.2 mph100%29.98 "HgN/A
9:20 PM41 °FFog.1 mph100%29.98 "HgN/A
8:50 PM39 °FFog.No wind100%29.98 "HgN/A
8:20 PM41 °FFog.2 mph100%29.98 "HgN/A
7:50 PM43 °FPassing clouds.1 mph93%29.98 "HgN/A
7:20 PM45 °FPassing clouds.1 mph93%29.95 "HgN/A
6:50 PM45 °FPartly cloudy.No wind93%29.95 "HgN/A
6:20 PM45 °FPartly cloudy.2 mph93%29.95 "HgN/A
Weather by CustomWeather, © 2016

See weather overviewHow to use our weather pages